| time (UTC) | temp F | wind direction | speed MPH | gust MPH | rain 1hr in | rain 24hr in | rain mn in | humidity % | barometer mb |
| 20260903235006 | 58 | 214 | 0.0 | 14.0 | 0.08 | 0.00 | 0.11 | 98 | 1005.5 |
| 20260903234505 | 58 | 243 | 0.0 | 14.0 | 0.08 | 0.00 | 0.11 | 98 | 1005.3 |
| 20260903234005 | 57 | 219 | 0.0 | 14.0 | 0.07 | 0.00 | 0.09 | 98 | 1005.2 |
| 20260903233504 | 57 | 190 | 0.0 | 14.0 | 0.07 | 0.00 | 0.09 | 98 | 1005.4 |
| 20260903233004 | 57 | 142 | 0.0 | 14.0 | 0.07 | 0.00 | 0.08 | 98 | 1005.6 |
| 20260903232504 | 57 | 142 | 0.0 | 14.0 | 0.06 | 0.00 | 0.07 | 98 | 1005.6 |
| 20260903231447 | 57 | 144 | 0.0 | 14.0 | 0.06 | 0.00 | 0.06 | 98 | 1005.5 |
| 20260903230946 | 57 | 144 | 0.0 | 14.0 | 0.05 | 0.00 | 0.06 | 98 | 1005.5 |
| 20260903225931 | 57 | 144 | 0.0 | 14.0 | 0.04 | 0.00 | 0.04 | 98 | 1005.7 |
| 20260903225430 | 57 | 144 | 0.0 | 14.0 | 0.03 | 0.00 | 0.03 | 98 | 1005.9 |
| 20260903224930 | 57 | 144 | 0.0 | 14.0 | 0.03 | 0.00 | 0.03 | 98 | 1005.6 |
| 20260903224430 | 57 | 144 | 0.0 | 14.0 | 0.03 | 0.00 | 0.03 | 98 | 1005.8 |
| 20260903223930 | 57 | 143 | 0.0 | 14.0 | 0.03 | 0.00 | 0.03 | 98 | 1006.0 |
| 20260903223430 | 57 | 140 | 0.0 | 14.0 | 0.02 | 0.00 | 0.02 | 98 | 1005.9 |
| 20260903222929 | 57 | 140 | 0.0 | 14.0 | 0.00 | 0.00 | 0.00 | 98 | 1005.7 |
| 20260903222428 | 57 | 139 | 0.0 | 14.0 | 0.00 | 0.00 | 0.00 | 98 | 1005.9 |
| 20260903221927 | 57 | 144 | 0.0 | 14.0 | 0.00 | 0.00 | 0.00 | 98 | 1006.1 |
| 20260903220911 | 57 | 148 | 0.0 | 14.0 | 0.00 | 0.00 | 0.00 | 98 | 1006.2 |
| 20260903220410 | 57 | 147 | 0.0 | 14.0 | 0.00 | 0.00 | 0.00 | 98 | 1006.0 |
| 20260903215910 | 57 | 147 | 0.0 | 14.0 | 0.00 | 0.00 | 0.30 | 98 | 1006.0 |
| 20260903215409 | 57 | 148 | 0.0 | 14.0 | 0.00 | 0.00 | 0.30 | 98 | 1006.1 |
| 20260903214909 | 57 | 148 | 0.0 | 14.0 | 0.00 | 0.00 | 0.30 | 98 | 1006.2 |
| 20260903213337 | 57 | 148 | 0.0 | 14.0 | 0.00 | 0.00 | 0.30 | 98 | 1006.2 |
| 20260903212837 | 57 | 148 | 0.0 | 14.0 | 0.00 | 0.00 | 0.30 | 98 | 1006.1 |
| 20260903212336 | 57 | 148 | 0.0 | 14.0 | 0.00 | 0.00 | 0.30 | 98 | 1006.3 |
| 20260903211835 | 57 | 148 | 0.0 | 14.0 | 0.00 | 0.00 | 0.30 | 98 | 1006.4 |
| 20260903211334 | 57 | 148 | 0.0 | 14.0 | 0.00 | 0.00 | 0.30 | 98 | 1006.5 |
| 20260903210834 | 57 | 149 | 0.0 | 14.0 | 0.00 | 0.00 | 0.30 | 98 | 1006.4 |
| 20260903210334 | 57 | 149 | 0.0 | 14.0 | 0.00 | 0.00 | 0.30 | 98 | 1006.1 |
| 20260903205834 | 57 | 149 | 0.0 | 14.0 | 0.00 | 0.00 | 0.30 | 98 | 1006.3 |
| 20260903205334 | 57 | 149 | 0.0 | 14.0 | 0.00 | 0.00 | 0.30 | 98 | 1006.2 |
| 20260903204834 | 57 | 149 | 0.0 | 14.0 | 0.00 | 0.00 | 0.30 | 98 | 1006.8 |
| 20260903204333 | 57 | 148 | 0.0 | 14.0 | 0.00 | 0.00 | 0.30 | 98 | 1006.3 |
| 20260903203316 | 57 | 146 | 0.0 | 14.0 | 0.00 | 0.00 | 0.30 | 98 | 1006.2 |
| 20260903202259 | 57 | 147 | 0.0 | 14.0 | 0.00 | 0.00 | 0.30 | 98 | 1006.5 |
| 20260903200727 | 57 | 148 | 0.0 | 14.0 | 0.00 | 0.00 | 0.30 | 98 | 1006.7 |
| 20260903200226 | 57 | 148 | 0.0 | 14.0 | 0.00 | 0.00 | 0.30 | 98 | 1006.6 |
| 20260903195725 | 57 | 149 | 0.0 | 14.0 | 0.00 | 0.00 | 0.30 | 98 | 1006.8 |
| 20260903195224 | 57 | 149 | 0.0 | 14.0 | 0.00 | 0.00 | 0.30 | 98 | 1007.1 |
| 20260903194723 | 57 | 150 | 0.0 | 14.0 | 0.00 | 0.00 | 0.30 | 98 | 1006.9 |
| 20260903194222 | 57 | 150 | 0.0 | 14.0 | 0.00 | 0.00 | 0.30 | 98 | 1006.9 |
| 20260903193722 | 57 | 150 | 0.0 | 14.0 | 0.00 | 0.00 | 0.30 | 98 | 1006.7 |
| 20260903193222 | 57 | 150 | 0.0 | 14.0 | 0.00 | 0.00 | 0.30 | 97 | 1006.8 |
| 20260903192722 | 57 | 151 | 0.0 | 14.0 | 0.00 | 0.00 | 0.30 | 97 | 1007.0 |
| 20260903192221 | 57 | 151 | 0.0 | 14.0 | 0.00 | 0.00 | 0.30 | 97 | 1006.7 |
| 20260903191721 | 57 | 150 | 0.0 | 14.0 | 0.00 | 0.00 | 0.30 | 97 | 1006.7 |
| 20260903190705 | 57 | 152 | 0.0 | 14.0 | 0.00 | 0.00 | 0.30 | 97 | 1006.6 |
| 20260903190205 | 57 | 152 | 0.0 | 14.0 | 0.00 | 0.00 | 0.30 | 97 | 1006.6 |
| 20260903185705 | 57 | 152 | 0.0 | 14.0 | 0.00 | 0.00 | 0.30 | 97 | 1006.9 |
| 20260903185204 | 58 | 153 | 0.0 | 14.0 | 0.00 | 0.00 | 0.29 | 97 | 1006.9 |
| 20260903184704 | 58 | 153 | 0.0 | 14.0 | 0.00 | 0.00 | 0.29 | 97 | 1007.1 |
| 20260903184203 | 58 | 152 | 0.0 | 14.0 | 0.00 | 0.00 | 0.29 | 97 | 1006.9 |
| 20260903183703 | 58 | 152 | 0.0 | 14.0 | 0.00 | 0.00 | 0.29 | 97 | 1007.2 |
| 20260903183202 | 58 | 152 | 0.0 | 14.0 | 0.02 | 0.00 | 0.29 | 97 | 1006.9 |
| 20260903182702 | 58 | 152 | 0.0 | 14.0 | 0.03 | 0.00 | 0.29 | 97 | 1006.7 |
| 20260903182202 | 58 | 152 | 0.0 | 14.0 | 0.05 | 0.00 | 0.29 | 97 | 1006.6 |
| 20260903181701 | 58 | 151 | 0.0 | 14.0 | 0.05 | 0.00 | 0.29 | 97 | 1006.9 |
| 20260903181200 | 58 | 151 | 0.0 | 14.0 | 0.06 | 0.00 | 0.29 | 97 | 1006.8 |
| 20260903180659 | 58 | 151 | 0.0 | 14.0 | 0.06 | 0.00 | 0.29 | 97 | 1007.2 |
| 20260903175643 | 58 | 150 | 0.0 | 14.0 | 0.06 | 0.00 | 0.29 | 97 | 1007.1 |
| 20260903175143 | 58 | 148 | 0.0 | 14.0 | 0.06 | 0.00 | 0.29 | 97 | 1007.0 |
| 20260903174643 | 58 | 148 | 0.0 | 14.0 | 0.06 | 0.00 | 0.29 | 97 | 1007.3 |
| 20260903173628 | 58 | 148 | 0.0 | 14.0 | 0.05 | 0.00 | 0.27 | 97 | 1006.9 |
| 20260903173128 | 58 | 145 | 0.0 | 14.0 | 0.04 | 0.00 | 0.27 | 97 | 1007.1 |
| 20260903172627 | 58 | 146 | 0.0 | 14.0 | 0.05 | 0.00 | 0.26 | 97 | 1007.3 |
| 20260903172127 | 58 | 147 | 0.0 | 14.0 | 0.03 | 0.00 | 0.24 | 97 | 1007.1 |
| 20260903171626 | 58 | 148 | 0.0 | 14.0 | 0.03 | 0.00 | 0.24 | 97 | 1007.2 |
| 20260903171126 | 58 | 148 | 0.0 | 14.0 | 0.03 | 0.00 | 0.24 | 97 | 1007.1 |
| 20260903170625 | 58 | 148 | 0.0 | 14.0 | 0.03 | 0.00 | 0.23 | 97 | 1007.0 |
| 20260903170124 | 58 | 148 | 0.0 | 14.0 | 0.03 | 0.00 | 0.23 | 97 | 1007.2 |
| 20260903165623 | 58 | 145 | 0.0 | 14.0 | 0.04 | 0.00 | 0.22 | 97 | 1007.1 |
| 20260903165122 | 58 | 146 | 0.0 | 14.0 | 0.05 | 0.00 | 0.22 | 97 | 1007.2 |
| 20260903164622 | 58 | 145 | 0.0 | 14.0 | 0.06 | 0.00 | 0.22 | 97 | 1007.2 |
| 20260903164121 | 58 | 145 | 0.0 | 14.0 | 0.08 | 0.00 | 0.22 | 97 | 1007.4 |
| 20260903163620 | 58 | 144 | 0.0 | 14.0 | 0.10 | 0.00 | 0.22 | 96 | 1007.5 |
| 20260903163120 | 58 | 144 | 0.0 | 14.0 | 0.12 | 0.00 | 0.22 | 97 | 1007.2 |
| 20260903162619 | 58 | 145 | 0.0 | 14.0 | 0.13 | 0.00 | 0.22 | 97 | 1007.5 |
| 20260903162120 | 58 | 145 | 0.0 | 14.0 | 0.12 | 0.00 | 0.20 | 97 | 1007.8 |
| 20260903161619 | 58 | 144 | 0.0 | 14.0 | 0.14 | 0.00 | 0.20 | 96 | 1007.7 |
| 20260903161118 | 58 | 145 | 0.0 | 14.0 | 0.14 | 0.00 | 0.20 | 96 | 1007.7 |
| 20260903160617 | 58 | 146 | 0.0 | 14.0 | 0.14 | 0.00 | 0.20 | 96 | 1008.0 |
| 20260903160117 | 58 | 145 | 0.0 | 14.0 | 0.13 | 0.00 | 0.20 | 96 | 1007.7 |
| 20260903155618 | 58 | 143 | 0.0 | 14.0 | 0.11 | 0.00 | 0.17 | 96 | 1008.2 |
| 20260903154045 | 58 | 147 | 0.0 | 14.0 | 0.08 | 0.00 | 0.13 | 96 | 1008.2 |
| 20260903153545 | 58 | 145 | 0.0 | 14.0 | 0.09 | 0.00 | 0.13 | 96 | 1007.9 |
| 20260903152528 | 58 | 167 | 0.0 | 14.0 | 0.05 | 0.00 | 0.09 | 96 | 1008.3 |
| 20260903152028 | 58 | 168 | 0.0 | 14.0 | 0.04 | 0.00 | 0.08 | 96 | 1008.4 |
| 20260903151528 | 58 | 170 | 1.0 | 14.0 | 0.02 | 0.00 | 0.06 | 95 | 1008.5 |
| 20260903151026 | 58 | 155 | 0.0 | 14.0 | 0.02 | 0.00 | 0.06 | 95 | 1008.7 |
| 20260903150525 | 58 | 155 | 0.0 | 14.0 | 0.02 | 0.00 | 0.06 | 95 | 1008.8 |
| 20260903150024 | 59 | 156 | 0.0 | 14.0 | 0.02 | 0.00 | 0.06 | 95 | 1008.5 |
| 20260903145524 | 59 | 153 | 0.0 | 14.0 | 0.02 | 0.00 | 0.06 | 95 | 1008.7 |
| 20260903145024 | 59 | 155 | 0.0 | 14.0 | 0.03 | 0.00 | 0.06 | 95 | 1008.9 |
| 20260903144522 | 59 | 154 | 0.0 | 14.0 | 0.02 | 0.00 | 0.05 | 95 | 1008.8 |
| 20260903144022 | 59 | 153 | 0.0 | 14.0 | 0.02 | 0.00 | 0.05 | 95 | 1008.9 |
| 20260903143521 | 59 | 149 | 0.0 | 14.0 | 0.00 | 0.00 | 0.03 | 95 | 1008.9 |
| 20260903143021 | 59 | 144 | 0.0 | 14.0 | 0.00 | 0.00 | 0.03 | 95 | 1009.1 |
| 20260903142522 | 59 | 158 | 0.0 | 14.0 | 0.01 | 0.00 | 0.03 | 95 | 1009.3 |
| 20260903142022 | 59 | 160 | 0.0 | 14.0 | 0.01 | 0.00 | 0.03 | 95 | 1009.1 |
| 20260903141522 | 59 | 161 | 0.0 | 14.0 | 0.01 | 0.00 | 0.03 | 94 | 1009.2 |
| 20260903141022 | 59 | 162 | 0.0 | 14.0 | 0.02 | 0.00 | 0.03 | 95 | 1009.2 |
| 20260903140520 | 59 | 140 | 0.0 | 14.0 | 0.02 | 0.00 | 0.03 | 95 | 1009.3 |
| 20260903140021 | 59 | 131 | 0.0 | 14.0 | 0.02 | 0.00 | 0.03 | 94 | 1009.3 |
| 20260903135520 | 59 | 132 | 0.0 | 14.0 | 0.02 | 0.00 | 0.03 | 94 | 1009.2 |
| 20260903135020 | 59 | 133 | 0.0 | 14.0 | 0.01 | 0.00 | 0.03 | 94 | 1009.5 |
| 20260903134519 | 59 | 124 | 0.0 | 14.0 | 0.01 | 0.00 | 0.03 | 95 | 1009.6 |
| 20260903133504 | 59 | 131 | 0.0 | 14.0 | 0.01 | 0.00 | 0.03 | 95 | 1009.7 |
| 20260903133003 | 59 | 132 | 0.0 | 14.0 | 0.01 | 0.00 | 0.03 | 94 | 1009.6 |
| 20260903132501 | 59 | 129 | 0.0 | 14.0 | 0.00 | 0.00 | 0.02 | 94 | 1009.9 |
| 20260903132000 | 59 | 143 | 0.0 | 14.0 | 0.00 | 0.00 | 0.02 | 94 | 1009.6 |
| 20260903130944 | 59 | 140 | 0.0 | 14.0 | 0.01 | 0.00 | 0.01 | 94 | 1010.1 |
| 20260903130444 | 59 | 144 | 0.0 | 14.0 | 0.01 | 0.00 | 0.01 | 94 | 1010.0 |
| 20260903125943 | 59 | 139 | 0.0 | 14.0 | 0.01 | 0.00 | 0.01 | 93 | 1009.7 |
| 20260903125442 | 59 | 137 | 0.0 | 14.0 | 0.01 | 0.00 | 0.01 | 93 | 1010.0 |
| 20260903124941 | 59 | 148 | 0.0 | 14.0 | 0.01 | 0.00 | 0.01 | 93 | 1010.1 |
| 20260903124441 | 59 | 165 | 0.0 | 14.0 | 0.01 | 0.00 | 0.01 | 93 | 1010.1 |
| 20260903123939 | 59 | 140 | 0.0 | 14.0 | 0.01 | 0.00 | 0.01 | 92 | 1010.5 |
| 20260903122923 | 59 | 139 | 0.0 | 14.0 | 0.01 | 0.00 | 0.01 | 92 | 1010.3 |
| 20260903121907 | 59 | 145 | 0.0 | 14.0 | 0.01 | 0.00 | 0.01 | 93 | 1010.4 |
| 20260903121407 | 59 | 118 | 0.0 | 14.0 | 0.01 | 0.00 | 0.01 | 92 | 1010.5 |
| 20260903115319 | 58 | 135 | 0.0 | 14.0 | 0.00 | 0.00 | 0.00 | 91 | 1010.7 |
| 20260903114818 | 58 | 144 | 0.0 | 14.0 | 0.00 | 0.00 | 0.00 | 92 | 1010.7 |
| 20260903114318 | 58 | 145 | 0.0 | 14.0 | 0.00 | 0.00 | 0.00 | 92 | 1010.7 |
| 20260903113817 | 58 | 140 | 0.0 | 14.0 | 0.00 | 0.00 | 0.00 | 91 | 1010.7 |
| 20260903112801 | 58 | 137 | 0.0 | 14.0 | 0.00 | 0.00 | 0.00 | 90 | 1010.9 |
| 20260903112300 | 58 | 157 | 0.0 | 14.0 | 0.00 | 0.00 | 0.00 | 89 | 1010.9 |
| 20260903111759 | 58 | 160 | 0.0 | 14.0 | 0.00 | 0.00 | 0.00 | 89 | 1011.1 |
| 20260903111259 | 58 | 150 | 0.0 | 14.0 | 0.00 | 0.00 | 0.00 | 89 | 1011.1 |
| 20260903110758 | 58 | 150 | 0.0 | 14.0 | 0.00 | 0.00 | 0.00 | 89 | 1011.0 |
| 20260903110258 | 58 | 150 | 0.0 | 14.0 | 0.00 | 0.00 | 0.00 | 89 | 1011.3 |
| 20260903105758 | 58 | 140 | 0.0 | 14.0 | 0.00 | 0.00 | 0.00 | 89 | 1011.4 |
| 20260903105257 | 58 | 123 | 0.0 | 14.0 | 0.00 | 0.00 | 0.00 | 89 | 1011.2 |
| 20260903104756 | 58 | 121 | 0.0 | 14.0 | 0.00 | 0.00 | 0.00 | 89 | 1011.3 |
| 20260903104255 | 58 | 119 | 0.0 | 14.0 | 0.00 | 0.00 | 0.00 | 88 | 1011.5 |
| 20260903103754 | 58 | 167 | 0.0 | 14.0 | 0.00 | 0.00 | 0.00 | 89 | 1011.4 |
| 20260903103253 | 58 | 151 | 0.0 | 14.0 | 0.00 | 0.00 | 0.00 | 88 | 1011.6 |
| 20260903102752 | 58 | 141 | 0.0 | 14.0 | 0.00 | 0.00 | 0.00 | 88 | 1011.8 |
| 20260903102251 | 58 | 140 | 0.0 | 14.0 | 0.00 | 0.00 | 0.00 | 88 | 1011.7 |
| 20260903101751 | 58 | 141 | 0.0 | 14.0 | 0.00 | 0.00 | 0.00 | 87 | 1011.8 |
| 20260903101251 | 58 | 140 | 0.0 | 14.0 | 0.00 | 0.00 | 0.00 | 87 | 1011.5 |
| 20260903100750 | 58 | 141 | 0.0 | 14.0 | 0.00 | 0.00 | 0.00 | 87 | 1012.0 |
| 20260903100250 | 58 | 121 | 0.0 | 14.0 | 0.00 | 0.00 | 0.00 | 87 | 1011.9 |
| 20260903095234 | 58 | 145 | 0.0 | 14.0 | 0.00 | 0.00 | 0.00 | 86 | 1011.8 |
| 20260903094733 | 58 | 139 | 0.0 | 14.0 | 0.00 | 0.00 | 0.00 | 86 | 1012.1 |
| 20260903094232 | 57 | 168 | 0.0 | 14.0 | 0.00 | 0.00 | 0.00 | 86 | 1012.2 |
| 20260903093731 | 57 | 172 | 0.0 | 14.0 | 0.00 | 0.00 | 0.00 | 86 | 1012.0 |
| 20260903093230 | 57 | 182 | 0.0 | 14.0 | 0.00 | 0.00 | 0.00 | 86 | 1012.3 |
| 20260903092729 | 57 | 173 | 0.0 | 14.0 | 0.00 | 0.00 | 0.00 | 86 | 1012.3 |
| 20260903092228 | 57 | 175 | 0.0 | 14.0 | 0.00 | 0.00 | 0.00 | 85 | 1012.2 |
| 20260903091727 | 57 | 163 | 0.0 | 14.0 | 0.00 | 0.00 | 0.00 | 85 | 1012.2 |
| 20260903091227 | 57 | 136 | 0.0 | 14.0 | 0.00 | 0.00 | 0.00 | 85 | 1012.3 |
| 20260903090726 | 58 | 120 | 0.0 | 14.0 | 0.00 | 0.00 | 0.00 | 84 | 1012.0 |
| 20260903090225 | 57 | 116 | 0.0 | 14.0 | 0.00 | 0.00 | 0.00 | 85 | 1012.2 |
| 20260903085725 | 57 | 201 | 0.0 | 14.0 | 0.00 | 0.00 | 0.00 | 84 | 1012.2 |
| 20260903085225 | 57 | 204 | 0.0 | 14.0 | 0.00 | 0.00 | 0.00 | 84 | 1012.5 |
| 20260903084724 | 57 | 153 | 0.0 | 14.0 | 0.00 | 0.00 | 0.00 | 84 | 1012.5 |
| 20260903084223 | 57 | 330 | 0.0 | 14.0 | 0.00 | 0.00 | 0.00 | 84 | 1012.4 |
| 20260903083207 | 57 | 134 | 0.0 | 14.0 | 0.00 | 0.00 | 0.00 | 85 | 1012.5 |
| 20260903082706 | 57 | 153 | 0.0 | 14.0 | 0.00 | 0.00 | 0.00 | 85 | 1012.6 |
| 20260903082206 | 57 | 132 | 0.0 | 14.0 | 0.00 | 0.00 | 0.00 | 85 | 1012.5 |
| 20260903081705 | 57 | 157 | 0.0 | 14.0 | 0.00 | 0.00 | 0.00 | 85 | 1012.4 |
| 20260903081205 | 56 | 179 | 0.0 | 14.0 | 0.00 | 0.00 | 0.00 | 85 | 1012.3 |
| 20260903080704 | 56 | 160 | 0.0 | 14.0 | 0.00 | 0.00 | 0.00 | 86 | 1012.6 |
| 20260903080204 | 56 | 152 | 0.0 | 14.0 | 0.00 | 0.00 | 0.00 | 86 | 1012.7 |
| 20260903075704 | 56 | 148 | 0.0 | 14.0 | 0.00 | 0.00 | 0.00 | 86 | 1012.7 |
| 20260903074647 | 55 | 153 | 0.0 | 14.0 | 0.00 | 0.00 | 0.00 | 87 | 1012.9 |
| 20260903074146 | 55 | 318 | 0.0 | 14.0 | 0.00 | 0.00 | 0.00 | 87 | 1012.6 |
| 20260903073645 | 54 | 145 | 0.0 | 14.0 | 0.00 | 0.00 | 0.00 | 87 | 1012.7 |
| 20260903073145 | 54 | 138 | 0.0 | 14.0 | 0.00 | 0.00 | 0.00 | 87 | 1013.0 |
| 20260903072644 | 54 | 147 | 0.0 | 14.0 | 0.00 | 0.00 | 0.00 | 88 | 1012.5 |
| 20260903071628 | 54 | 158 | 0.0 | 14.0 | 0.00 | 0.00 | 0.00 | 89 | 1012.8 |
| 20260903071128 | 54 | 157 | 0.0 | 14.0 | 0.00 | 0.00 | 0.00 | 89 | 1012.6 |
| 20260903070627 | 53 | 166 | 0.0 | 14.0 | 0.00 | 0.00 | 0.00 | 89 | 1012.6 |
| 20260903070126 | 53 | 157 | 0.0 | 14.0 | 0.00 | 0.00 | 0.00 | 90 | 1012.9 |
| 20260903065625 | 52 | 144 | 0.0 | 14.0 | 0.00 | 0.00 | 0.00 | 92 | 1012.8 |
| 20260903064609 | 51 | 161 | 0.0 | 14.0 | 0.00 | 0.00 | 0.00 | 92 | 1013.0 |
| 20260903064108 | 51 | 148 | 0.0 | 14.0 | 0.00 | 0.00 | 0.00 | 92 | 1013.0 |
| 20260903063608 | 51 | 152 | 0.0 | 14.0 | 0.00 | 0.00 | 0.00 | 93 | 1013.0 |
| 20260903063108 | 51 | 159 | 0.0 | 14.0 | 0.00 | 0.00 | 0.00 | 94 | 1013.1 |
| 20260903062608 | 50 | 169 | 0.0 | 14.0 | 0.00 | 0.00 | 0.00 | 94 | 1013.1 |
| 20260903062107 | 50 | 165 | 0.0 | 14.0 | 0.00 | 0.00 | 0.00 | 95 | 1013.3 |
| 20260903061606 | 50 | 164 | 0.0 | 14.0 | 0.00 | 0.00 | 0.00 | 95 | 1013.1 |
| 20260903061105 | 49 | 147 | 0.0 | 14.0 | 0.00 | 0.00 | 0.00 | 96 | 1013.4 |
| 20260903060604 | 49 | 191 | 0.0 | 14.0 | 0.00 | 0.00 | 0.00 | 96 | 1013.3 |
| 20260903055033 | 48 | 135 | 0.0 | 14.0 | 0.00 | 0.00 | 0.00 | 96 | 1013.1 |
| 20260903054533 | 48 | 147 | 0.0 | 14.0 | 0.00 | 0.00 | 0.00 | 96 | 1013.1 |
| 20260903054032 | 48 | 149 | 0.0 | 14.0 | 0.00 | 0.00 | 0.00 | 97 | 1013.2 |
| 20260903053016 | 47 | 150 | 0.0 | 14.0 | 0.00 | 0.00 | 0.00 | 97 | 1013.5 |
| 20260903052515 | 46 | 146 | 0.0 | 14.0 | 0.00 | 0.00 | 0.00 | 97 | 1013.4 |
| 20260903050943 | 45 | 146 | 0.0 | 14.0 | 0.00 | 0.00 | 0.00 | 96 | 1013.8 |
| 20260903045927 | 45 | 182 | 0.0 | 14.0 | 0.00 | 0.00 | 0.00 | 96 | 1013.9 |
| 20260903044912 | 45 | 185 | 0.0 | 14.0 | 0.00 | 0.00 | 0.00 | 96 | 1013.9 |
| 20260903044412 | 45 | 186 | 0.0 | 14.0 | 0.00 | 0.00 | 0.00 | 95 | 1013.6 |
| 20260903043912 | 45 | 185 | 0.0 | 14.0 | 0.00 | 0.00 | 0.00 | 95 | 1013.6 |
| 20260903043411 | 45 | 181 | 0.0 | 14.0 | 0.00 | 0.00 | 0.00 | 95 | 1013.5 |
| 20260903042911 | 45 | 146 | 0.0 | 14.0 | 0.00 | 0.00 | 0.00 | 95 | 1013.7 |
| 20260903041854 | 45 | 140 | 0.0 | 14.0 | 0.00 | 0.00 | 0.00 | 95 | 1013.8 |
| 20260903041353 | 46 | 136 | 0.0 | 14.0 | 0.00 | 0.00 | 0.00 | 95 | 1013.8 |
| 20260903040853 | 46 | 135 | 0.0 | 14.0 | 0.00 | 0.00 | 0.00 | 95 | 1013.5 |
| 20260903040353 | 46 | 140 | 0.0 | 14.0 | 0.00 | 0.00 | 0.00 | 95 | 1013.9 |
| 20260903035853 | 46 | 137 | 0.0 | 14.0 | 0.00 | 0.00 | 0.00 | 94 | 1013.8 |
| 20260903035353 | 46 | 137 | 0.0 | 14.0 | 0.00 | 0.00 | 0.00 | 94 | 1013.7 |
| 20260903034852 | 46 | 138 | 0.0 | 14.0 | 0.00 | 0.00 | 0.00 | 94 | 1013.5 |
| 20260903034352 | 46 | 137 | 0.0 | 14.0 | 0.00 | 0.00 | 0.00 | 94 | 1013.9 |
| 20260903033337 | 47 | 132 | 0.0 | 14.0 | 0.00 | 0.00 | 0.00 | 94 | 1013.6 |
| 20260903032321 | 47 | 133 | 0.0 | 14.0 | 0.00 | 0.00 | 0.00 | 94 | 1013.9 |
| 20260903031820 | 47 | 133 | 0.0 | 14.0 | 0.00 | 0.00 | 0.00 | 94 | 1013.9 |
| 20260903031319 | 47 | 134 | 0.0 | 14.0 | 0.00 | 0.00 | 0.00 | 94 | 1013.8 |
| 20260903030819 | 47 | 136 | 0.0 | 14.0 | 0.00 | 0.00 | 0.00 | 93 | 1013.7 |
| 20260903030318 | 48 | 134 | 0.0 | 14.0 | 0.00 | 0.00 | 0.00 | 93 | 1014.0 |
| 20260903025817 | 48 | 134 | 0.0 | 14.0 | 0.00 | 0.00 | 0.00 | 93 | 1013.9 |
| 20260903025317 | 48 | 131 | 0.0 | 14.0 | 0.00 | 0.00 | 0.00 | 93 | 1013.9 |
| 20260903024301 | 49 | 130 | 0.0 | 14.0 | 0.00 | 0.00 | 0.00 | 93 | 1014.0 |
| 20260903023800 | 49 | 246 | 0.0 | 14.0 | 0.00 | 0.00 | 0.00 | 93 | 1014.1 |
| 20260903023300 | 49 | 246 | 0.0 | 14.0 | 0.00 | 0.00 | 0.00 | 93 | 1013.8 |
| 20260903022759 | 49 | 249 | 0.0 | 14.0 | 0.00 | 0.00 | 0.00 | 92 | 1013.6 |
| 20260903022259 | 49 | 247 | 0.0 | 14.0 | 0.00 | 0.00 | 0.00 | 92 | 1014.0 |
| 20260903021759 | 49 | 249 | 0.0 | 14.0 | 0.00 | 0.00 | 0.00 | 92 | 1013.8 |
| 20260903021258 | 50 | 250 | 0.0 | 14.0 | 0.00 | 0.00 | 0.00 | 92 | 1014.0 |
| 20260903020758 | 50 | 249 | 0.0 | 14.0 | 0.00 | 0.00 | 0.00 | 91 | 1013.7 |
| 20260903020258 | 50 | 248 | 0.0 | 14.0 | 0.00 | 0.00 | 0.00 | 91 | 1013.9 |
| 20260903015242 | 50 | 241 | 0.0 | 14.0 | 0.00 | 0.00 | 0.00 | 91 | 1014.0 |
| 20260903014742 | 50 | 243 | 0.0 | 14.0 | 0.00 | 0.00 | 0.00 | 91 | 1014.0 |
| 20260903013725 | 51 | 242 | 0.0 | 14.0 | 0.00 | 0.00 | 0.00 | 91 | 1013.9 |
| 20260903013224 | 51 | 240 | 0.0 | 14.0 | 0.00 | 0.00 | 0.00 | 91 | 1014.1 |
| 20260903012723 | 51 | 240 | 0.0 | 14.0 | 0.00 | 0.00 | 0.00 | 91 | 1014.0 |
| 20260903012223 | 51 | 241 | 0.0 | 14.0 | 0.00 | 0.00 | 0.00 | 90 | 1014.1 |
| 20260903011207 | 51 | 240 | 0.0 | 14.0 | 0.00 | 0.00 | 0.00 | 90 | 1013.9 |
| 20260903010707 | 51 | 240 | 0.0 | 14.0 | 0.00 | 0.00 | 0.00 | 90 | 1014.0 |
| 20260903010207 | 51 | 242 | 0.0 | 14.0 | 0.00 | 0.00 | 0.00 | 90 | 1014.0 |
| 20260903005707 | 51 | 244 | 0.0 | 14.0 | 0.00 | 0.00 | 0.00 | 90 | 1014.0 |
| 20260903005207 | 51 | 246 | 0.0 | 14.0 | 0.00 | 0.00 | 0.00 | 90 | 1014.2 |
| 20260903004706 | 51 | 248 | 0.0 | 14.0 | 0.00 | 0.00 | 0.00 | 90 | 1014.1 |
| 20260903004205 | 51 | 205 | 0.0 | 14.0 | 0.00 | 0.00 | 0.00 | 89 | 1014.3 |
| 20260903003705 | 51 | 201 | 0.0 | 14.0 | 0.00 | 0.00 | 0.00 | 89 | 1014.2 |
| 20260903003204 | 51 | 197 | 0.0 | 14.0 | 0.00 | 0.00 | 0.00 | 89 | 1014.3 |
| 20260903002148 | 51 | 248 | 0.0 | 14.0 | 0.00 | 0.00 | 0.00 | 90 | 1014.0 |
| 20260903001648 | 51 | 215 | 0.0 | 14.0 | 0.00 | 0.00 | 0.00 | 90 | 1014.2 |
| 20260903001147 | 51 | 247 | 0.0 | 14.0 | 0.00 | 0.00 | 0.00 | 90 | 1014.0 |
| 20260903000647 | 51 | 244 | 0.0 | 14.0 | 0.00 | 0.00 | 0.00 | 90 | 1014.0 |